China Lake, CA

8:22 PM PST on February 23, 2018 (GMT -0800)
China Lake NAWS

Weather History for KNID - October, 2013

Change the Weather History Date:

Thursday, October 24, 2013

  Actual Average Record
Temperature  
Mean Temperature 65 °F -  
Max Temperature 84 °F 72 °F 93 °F (2017)
Min Temperature 46 °F 47 °F 39 °F (1996)
Growing Degree Days 15 (Base 50)    
Moisture  
Dew Point 19 °F    
Average Humidity 19    
Maximum Humidity 30    
Minimum Humidity 9    
Precipitation  
Precipitation 0.00 in - - ()
Sea Level Pressure  
Sea Level Pressure 29.94 in    
Wind  
Wind Speed 4 mph (SSE)    
Max Wind Speed 10 mph    
Max Gust Speed -    
Visibility 10 miles    
Events      
Averages and records for this station are not official NWS values.
T = Trace of Precipitation, MM = Missing Value Source: NWS Daily Summary

Daily Weather History Graph

Daily Weather History Graph

Search for Another Location

Airport or City:

Trip Planner

Search our weather history database for the weather conditions in past years. The results will help you decide how hot, cold, wet, or windy it might be!

Date:

Astronomy

Oct. 24, 2013 Rise Set
Actual Time 7:05 AM PDT 6:03 PM PDT
Civil Twilight 6:39 AM PDT 6:29 PM PDT
Nautical Twilight 6:09 AM PDT 6:59 PM PDT
Astronomical Twilight 5:39 AM PDT 7:29 PM PDT
Moon 10:36 PM PDT 12:05 PM PDT
Length of Visible Light 11h 50m
Length of Day
10h 58m
Waning Gibbous, 70% of the Moon is Illuminated
Oct 24
Waning Gibbous
Oct 26
Last Quarter
Nov 3
New
Nov 9
First Quarter
Nov 17
Full

Hourly Weather History & Observations

Time (PDT) Temp. Dew Point Humidity Pressure Visibility Wind Dir Wind Speed Gust Speed Precip Events Conditions
12:56 AM 55.9 °F 17.1 °F 22% 29.90 in 10.0 mi SW 4.6 mph - N/A   Clear
1:56 AM 50.0 °F 16.0 °F 26% 29.91 in 10.0 mi WSW 6.9 mph - N/A   Clear
2:56 AM 51.1 °F 17.1 °F 26% 29.91 in 10.0 mi SSW 3.5 mph - N/A   Clear
3:56 AM 50.0 °F 17.1 °F 27% 29.91 in 10.0 mi Calm Calm - N/A   Clear
4:56 AM 46.0 °F 14.0 °F 28% 29.92 in 10.0 mi Calm Calm - N/A   Clear
5:56 AM 48.0 °F 15.1 °F 27% 29.93 in 10.0 mi Calm Calm - N/A   Clear
6:56 AM 46.9 °F 17.1 °F 30% 29.94 in 10.0 mi Calm Calm - N/A   Clear
7:56 AM 48.9 °F 16.0 °F 27% 29.97 in 10.0 mi Calm Calm - N/A   Clear
8:56 AM 60.1 °F 19.0 °F 20% 29.98 in 10.0 mi Calm Calm - N/A   Clear
9:56 AM 68.0 °F 21.0 °F 17% 29.97 in 10.0 mi Calm Calm - N/A   Clear
10:56 AM 73.0 °F 21.0 °F 14% 29.96 in 10.0 mi Calm Calm - N/A   Clear
11:56 AM 78.1 °F 21.9 °F 12% 29.95 in 10.0 mi SE 3.5 mph - N/A   Clear
12:56 PM 81.0 °F 21.9 °F 11% 29.92 in 10.0 mi Calm Calm - N/A   Clear
1:56 PM 82.0 °F 21.0 °F 10% 29.90 in 10.0 mi East 4.6 mph - N/A   Clear
2:56 PM 84.0 °F 19.9 °F 9% 29.88 in 10.0 mi ESE 9.2 mph - N/A   Partly Cloudy
3:56 PM 84.0 °F 19.9 °F 9% 29.88 in 10.0 mi ENE 5.8 mph - N/A   Partly Cloudy
4:56 PM 82.9 °F 19.0 °F 9% 29.89 in 10.0 mi East 4.6 mph - N/A   Partly Cloudy
5:56 PM 78.1 °F 18.0 °F 10% 29.91 in 10.0 mi East 5.8 mph - N/A   Partly Cloudy
6:56 PM 72.0 °F 17.1 °F 12% 29.94 in 10.0 mi South 9.2 mph - N/A   Clear
7:56 PM 69.1 °F 21.0 °F 16% 29.96 in 10.0 mi SSW 8.1 mph - N/A   Clear
8:56 PM 64.9 °F 21.0 °F 19% 29.97 in 10.0 mi SSW 10.4 mph - N/A   Clear
9:56 PM 64.0 °F 24.1 °F 22% 29.98 in 10.0 mi SSW 5.8 mph - N/A   Clear
10:56 PM 57.9 °F 23.0 °F 26% 29.99 in 10.0 mi West 4.6 mph - N/A   Clear
11:56 PM 55.9 °F 19.9 °F 25% 29.99 in 10.0 mi East 3.5 mph - N/A   Clear